EHI
13 12 11 11 12 13 14 14 12 10 11 13 12 9 9 8 4 3 4 2 0 0 0 0 0 0 0 0 0 0 0 0 0 0 1 2 3 3
14 13 13 12 12 13 14 14 12 10 9 11 11 11 10 8 5 5 5 4 2 0 0 0 0 0 0 0 0 0 0 0 0 0 1 2 2 2
15 14 13 13 13 13 13 13 13 11 9 9 10 12 12 10 8 7 7 5 3 1 0 0 0 0 0 0 0 0 0 0 0 0 0 1 1 1
18 17 16 16 18 17 13 12 14 14 11 9 10 12 13 13 10 8 6 4 3 1 0 0 0 0 0 0 0 0 0 0 0 0 0 0 0 0
21 22 22 22 22 18 14 12 13 14 13 11 10 11 13 13 11 8 6 3 1 0 0 0 0 0 0 0 0 0 0 0 0 0 0 0 0 0
20 21 21 21 20 16 13 13 14 15 14 11 9 9 11 12 12 10 7 5 2 1 0 0 0 0 0 0 0 0 0 0 0 0 0 0 0 0
17 17 15 13 13 12 11 11 13 16 15 11 8 8 9 11 12 12 10 6 3 1 1 0 0 0 1 1 0 0 0 0 0 0 0 0 0 0
16 16 13 10 9 9 8 8 10 11 12 9 6 6 9 12 13 13 10 6 3 3 3 2 1 1 1 1 0 0 0 0 0 0 0 0 0 0
16 16 15 13 10 9 7 6 6 6 6 6 5 5 8 12 14 13 10 6 4 6 7 4 3 2 1 1 0 0 0 0 0 0 0 0 0 0
16 16 15 14 12 10 8 7 7 6 4 3 4 4 5 9 12 11 8 5 4 7 10 7 4 3 2 1 1 0 0 0 0 0 0 0 0 0
16 15 13 12 10 9 10 11 11 9 6 3 3 3 3 4 7 8 7 5 4 7 10 9 4 2 3 5 3 1 0 0 0 0 0 0 0 0
15 14 11 8 6 6 11 14 13 11 9 5 4 3 1 1 3 5 6 5 5 6 8 8 5 3 4 7 7 4 1 0 0 0 0 0 0 0
15 16 12 6 2 3 8 11 10 9 8 7 6 4 3 1 2 3 5 6 7 7 6 6 6 5 5 6 7 6 3 1 0 0 0 0 0 0
17 16 12 5 1 0 3 5 5 4 6 7 7 6 4 3 4 4 4 5 6 6 4 5 7 6 5 5 6 6 4 1 0 0 0 0 0 0
15 12 8 3 1 0 1 1 1 2 5 6 6 6 4 4 6 6 5 4 5 4 3 3 5 5 5 5 6 6 4 2 0 0 0 0 0 0
8 7 5 3 3 3 3 2 2 4 6 6 6 5 3 3 5 7 6 5 4 3 2 2 3 4 5 5 5 5 3 2 1 0 0 0 0 0
5 8 8 8 8 8 8 6 5 6 6 5 4 3 2 1 4 6 6 5 4 3 3 3 3 4 4 4 3 2 1 2 2 1 0 0 0 0
6 9 11 12 13 13 11 9 7 6 6 4 3 2 1 0 2 4 5 4 3 3 3 3 3 3 2 2 1 0 0 1 1 1 0 0 0 0
5 7 10 12 13 13 11 9 7 6 5 4 2 1 0 0 1 2 3 3 3 1 1 3 3 1 1 0 0 0 0 0 0 0 0 0 0 0
5 7 9 11 12 11 10 9 8 6 4 2 1 0 0 0 1 2 3 3 2 1 1 2 2 1 0 0 0 0 0 0 0 0 0 0 0 0
5 7 9 11 10 9 9 8 6 4 2 1 0 0 0 0 1 2 3 3 2 1 0 1 1 0 0 0 0 0 0 0 0 0 0 0 0 0
5 5 7 8 8 8 8 7 5 3 1 0 0 0 0 0 1 3 3 3 2 1 0 0 0 0 0 0 0 0 0 0 0 0 0 0 0 0
2 2 4 6 7 7 7 6 4 2 1 0 0 0 0 1 2 3 3 3 1 0 0 0 0 0 0 0 0 0 0 0 0 0 0 0 0 0
Wind_Speed
2 2 2 1 1 1 1 2 2 1 1 1 1 1 2 2 5 4 3 6 7 6 6 5 5 4 4 3 3 3 2 2 3 3 4 4 5 6
2 2 2 2 1 2 2 2 2 2 1 1 2 1 2 2 4 3 3 7 8 8 7 7 6 5 4 4 4 3 3 3 3 3 4 5 5 6
2 2 3 2 2 2 1 1 1 2 2 2 1 1 1 2 2 2 3 4 5 9 9 8 7 7 6 5 5 4 4 4 4 5 5 5 6 6
3 2 3 2 2 2 1 2 2 2 2 2 2 2 2 2 3 3 3 4 3 7 10 9 8 7 7 7 6 5 5 5 5 5 6 6 7 6
2 2 3 3 2 2 3 2 2 2 2 2 2 2 2 2 2 2 3 2 3 4 8 9 9 8 8 7 7 6 6 6 6 6 6 6 6 6
2 2 3 2 2 3 3 3 2 2 2 2 2 2 1 2 2 2 2 1 2 2 4 5 7 8 8 7 7 7 7 7 7 6 6 6 6 6
3 3 3 2 2 2 2 2 2 2 2 2 2 1 1 1 2 2 2 2 2 1 1 3 3 3 5 6 7 8 8 7 7 7 7 7 7 6
4 3 3 4 4 5 5 5 5 4 3 3 3 2 2 2 2 2 2 2 2 1 1 2 3 3 3 4 6 9 9 8 8 8 8 7 7 7
4 3 4 4 4 4 5 6 7 8 7 5 4 3 3 3 2 3 2 2 3 2 2 2 2 2 2 3 6 8 9 8 8 7 7 7 7 7
4 4 4 3 3 2 3 4 5 5 6 6 4 4 3 2 3 3 3 3 3 3 2 2 2 2 1 2 5 7 7 7 7 7 7 7 7 7
5 4 3 3 2 2 3 4 4 3 4 4 4 4 4 4 3 2 2 2 3 3 2 2 2 1 1 1 3 6 6 6 6 6 6 7 7 6
3 3 3 3 3 3 3 3 4 3 3 3 3 4 4 5 6 4 3 3 3 2 2 1 1 1 2 1 1 2 3 5 6 6 6 6 6 4
3 3 2 4 4 5 4 4 4 3 4 4 4 4 4 4 4 4 3 3 3 3 1 1 1 1 1 2 1 2 2 2 3 3 5 6 5 5
4 2 1 4 4 5 5 5 4 3 3 3 3 3 3 3 3 3 3 3 2 3 2 2 2 2 2 2 2 1 1 2 2 2 3 4 4 6
3 2 2 4 4 5 7 7 4 3 3 3 3 2 2 2 2 2 2 2 3 4 4 3 3 2 2 3 2 2 1 1 2 1 2 2 2 3
4 4 4 6 5 4 4 4 4 4 4 3 3 2 2 2 2 2 2 2 2 3 4 4 3 3 3 3 2 2 2 2 1 1 1 1 2 2
3 4 4 3 3 4 3 4 4 3 4 3 2 2 2 2 2 2 2 1 2 3 2 2 2 2 2 2 2 2 2 1 1 1 0 1 2 2
3 4 4 4 4 4 3 3 3 3 3 2 2 2 2 2 2 2 2 2 2 2 2 1 1 1 1 1 2 2 1 1 1 0 1 1 2 1
4 4 4 3 3 3 3 3 2 2 2 2 2 2 2 2 2 2 2 2 2 2 2 2 2 2 2 2 1 0 1 1 1 1 1 1 2 2
4 4 3 3 3 3 2 2 2 2 2 2 2 2 2 2 2 2 2 2 2 2 2 2 2 2 2 2 1 1 2 2 1 1 1 1 1 1
4 4 3 3 2 2 2 2 2 2 2 2 2 2 2 2 2 2 2 2 2 2 2 2 2 2 1 1 1 1 1 2 3 2 2 2 2 2
4 3 2 2 2 1 1 1 1 1 1 2 2 2 2 2 2 2 2 2 3 3 2 1 2 2 1 2 2 2 2 1 2 3 3 3 2 3
3 3 2 1 1 1 1 1 1 1 1 1 1 1 1 2 2 2 2 2 2 2 2 2 2 1 2 2 2 2 3 2 1 1 2 3 4 4
Wind_Direction
254 252 247 252 229 233 223 211 209 239 250 212 185 167 160 136 160 180 168 181 191 194 193 197 201 206 216 220 223 222 223 227 230 229 225 223 230 236
227 234 250 268 264 241 234 227 213 207 249 236 213 193 174 173 175 193 185 189 198 192 189 197 202 204 208 212 217 217 219 225 226 224 224 224 228 235
246 228 228 234 262 269 246 230 216 199 223 259 221 212 194 186 178 205 194 196 193 194 195 197 203 208 208 208 212 217 222 228 227 229 232 233 235 237
237 241 246 232 240 253 262 249 233 223 211 232 239 221 215 199 198 223 217 210 192 193 193 197 203 208 211 211 211 215 220 226 228 232 235 236 237 237
242 235 238 232 235 241 248 250 241 240 221 227 237 225 208 209 201 232 246 223 218 192 194 202 206 208 210 212 213 214 218 222 224 227 231 232 231 235
254 249 248 237 234 249 250 247 247 241 233 233 233 226 213 210 187 219 252 235 241 219 191 196 205 210 213 215 212 209 214 218 221 223 226 227 229 232
251 246 243 220 218 235 261 264 262 247 242 237 241 234 226 214 217 224 241 239 239 228 191 203 195 204 215 215 211 212 215 214 217 220 221 223 227 227
249 248 230 216 214 215 227 238 238 238 237 240 240 236 232 225 209 230 240 249 252 217 217 247 206 205 208 194 194 203 212 215 218 220 221 223 226 228
251 249 262 238 212 217 226 235 238 238 229 234 246 244 238 226 214 231 240 245 252 236 223 255 240 228 210 204 196 202 205 207 213 219 223 226 229 229
243 244 247 241 247 253 246 245 241 239 233 233 243 251 252 246 227 230 232 246 253 246 217 245 242 235 216 192 197 196 196 203 210 220 226 227 229 229
243 243 249 233 228 246 252 257 261 253 243 236 240 245 238 239 234 238 236 233 254 249 213 220 243 261 250 215 196 193 196 203 208 215 223 227 226 223
239 229 220 214 199 211 235 253 260 267 269 249 238 239 232 229 222 215 225 234 252 252 218 201 229 251 286 249 179 176 202 216 215 220 224 225 219 212
247 229 213 189 203 216 227 237 246 261 269 252 234 229 223 218 214 216 217 219 239 256 230 204 246 248 239 274 254 190 195 198 201 218 220 221 218 210
262 248 192 183 208 224 229 242 243 250 255 254 249 240 226 220 217 206 202 215 228 239 247 217 234 230 243 259 265 239 217 211 196 195 195 206 223 233
270 282 265 226 218 226 234 242 240 236 239 245 250 246 236 224 210 199 202 212 237 247 239 212 214 228 231 242 244 245 247 242 208 200 178 183 209 217
264 270 247 231 231 240 235 223 223 229 230 237 243 240 243 232 215 202 205 210 225 244 231 214 210 217 233 244 232 241 240 221 226 202 167 212 227 219
259 254 238 220 222 221 218 212 212 220 232 234 238 241 243 241 225 206 205 210 227 241 244 212 198 191 216 238 231 230 233 248 218 174 168 271 260 233
239 250 244 237 232 229 225 224 212 216 227 236 230 227 233 243 234 214 202 207 226 243 241 212 179 185 226 274 241 223 229 255 266 232 215 252 274 270
229 245 247 242 238 232 227 226 221 211 211 215 226 230 232 233 235 229 222 219 219 224 231 223 201 194 224 249 297 256 209 242 283 292 270 257 266 278
238 246 246 249 241 229 222 217 214 205 204 214 220 220 229 229 225 229 229 233 227 217 215 225 222 212 216 227 236 267 230 207 209 247 267 276 279 301
242 244 244 240 241 232 219 205 203 203 202 214 224 223 227 230 220 219 224 226 235 225 222 226 233 204 176 162 222 256 258 213 207 208 222 244 257 253
253 257 252 255 246 219 211 222 214 195 210 226 228 221 215 224 234 219 223 225 225 227 224 214 197 190 201 220 230 238 250 228 229 236 245 235 232 240
264 272 276 277 253 218 210 221 225 214 220 251 270 249 229 221 231 234 226 230 232 225 217 219 215 212 218 223 233 240 248 238 223 219 253 248 238 242